Location: Banios
(43.0451°N, 0.2335°E)
Time: 20:36:29
(UTC+00:00)

Spot 2 - Pass Details

Date: 25 January 2021
Orbit: 570 x 774 km, 98.8° (Epoch: 01 March)

Event Time Altitude Azimuth Distance (km) Brightness Sun altitude
Rises 06:45:03 0° 6° (N) 2,785 7.3 -6.9°
Reaches altitude 10° 06:47:17 10° 358° (N) 1,881 6.3 -6.5°
Maximum altitude 06:51:02 38° 290° (WNW) 888 4.4 -5.9°
Drops below altitude 10° 06:54:49 10° 222° (SW) 1,899 6.4 -5.2°
Sets 06:57:05 0° 214° (SW) 2,815 7.3 -4.8°
